Sisseton, SD

10:40 AM CST on February 19, 2018 (GMT -0600)
Sisseton

Weather History for K8D3 - October, 2012

Change the Weather History Date:

Friday, October 5, 2012

  Actual Average Record
Temperature  
Mean Temperature 36 °F 51 °F  
Max Temperature 43 °F 63 °F 94 °F (1970)
Min Temperature 29 °F 39 °F 15 °F (1935)
Degree Days  
Heating Degree Days 29 14  
Month to date heating degree days 80 66  
Since 1 July heating degree days 327 311  
Cooling Degree Days 0 0  
Month to date cooling degree days 0 0  
Year to date cooling degree days 712 523  
Moisture  
Dew Point 25 °F    
Average Humidity 69    
Maximum Humidity 89    
Minimum Humidity 49    
Precipitation  
Precipitation 0.00 in 0.09 in 2.54 in (1946)
Month to date precipitation 0.02 0.49  
Year to date precipitation 14.46 19.77  
Snow  
Snow 0.00 in - - ()
Month to date snowfall 0.0  
Since 1 July snowfall 0.0  
Snow Depth 0.00 in    
Sea Level Pressure  
Sea Level Pressure 30.28 in    
Wind  
Wind Speed 18 mph (NNW)    
Max Wind Speed 28 mph    
Max Gust Speed 38 mph    
T = Trace of Precipitation, MM = Missing Value Source: NWS Daily Summary

Daily Weather History Graph

Daily Weather History Graph

Search for Another Location

Airport or City:

Trip Planner

Search our weather history database for the weather conditions in past years. The results will help you decide how hot, cold, wet, or windy it might be!

Date:

Astronomy

Oct. 05, 2012 Rise Set
Actual Time 7:32 AM CDT 6:59 PM CDT
Civil Twilight 7:02 AM CDT 7:29 PM CDT
Nautical Twilight 6:27 AM CDT 8:03 PM CDT
Astronomical Twilight 5:53 AM CDT 8:38 PM CDT
Moon 10:09 PM CDT (10/5) 12:55 PM CDT (10/5)
Length of Visible Light 12h 26m
Length of Day
11h 27m
Waning Gibbous, 74% of the Moon is Illuminated
Oct 5
Waning Gibbous
Oct 8
Last Quarter
Oct 15
New
Oct 21
First Quarter
Oct 29
Full

Hourly Weather History & Observations

Time (CDT) Temp. Windchill Dew Point Humidity Pressure Visibility Wind Dir Wind Speed Gust Speed Precip Events Conditions
12:56 AM 35.1 °F 26.4 °F 26.1 °F 70% 30.27 in - NW 12.7 mph - N/A   Unknown
1:56 AM 34.0 °F 24.2 °F 26.1 °F 73% 30.27 in - NW 15.0 mph - N/A   Unknown
2:56 AM 34.0 °F 24.2 °F 26.1 °F 73% 30.27 in - NW 15.0 mph - N/A   Unknown
3:56 AM 32.0 °F 21.6 °F 25.0 °F 75% 30.25 in - NW 15.0 mph - N/A   Unknown
4:56 AM 30.9 °F 20.7 °F 24.1 °F 76% 30.25 in - NW 13.8 mph - N/A   Unknown
5:56 AM 30.0 °F 19.1 °F 23.0 °F 75% 30.26 in - NW 15.0 mph - N/A   Unknown
6:56 AM 30.0 °F 20.0 °F 21.9 °F 72% 30.26 in - NW 12.7 mph - N/A   Unknown
7:56 AM 30.0 °F 18.7 °F 21.9 °F 72% 30.27 in - NW 16.1 mph 24.2 mph N/A   Unknown
8:56 AM 32.0 °F 19.8 °F 23.0 °F 69% 30.27 in - NNW 20.7 mph 26.5 mph N/A   Unknown
9:56 AM 35.1 °F 23.3 °F 23.0 °F 61% 30.28 in - NNW 23.0 mph 28.8 mph N/A   Unknown
10:56 AM 37.0 °F 26.2 °F 25.0 °F 62% 30.28 in - NNW 21.9 mph 31.1 mph N/A   Unknown
11:56 AM 41.0 °F 31.9 °F 25.0 °F 53% 30.27 in - NNW 19.6 mph 27.6 mph N/A   Unknown
12:56 PM 42.1 °F 32.8 °F 25.0 °F 51% 30.27 in - NW 21.9 mph 29.9 mph N/A   Unknown
1:56 PM 42.1 °F 32.8 °F 24.1 °F 49% 30.27 in - NNW 21.9 mph 31.1 mph N/A   Unknown
2:56 PM 42.1 °F 32.8 °F 24.1 °F 49% 30.26 in - NNW 21.9 mph 31.1 mph N/A   Unknown
3:56 PM 42.1 °F 32.6 °F 25.0 °F 51% 30.27 in - NNW 23.0 mph 31.1 mph N/A   Unknown
4:56 PM 41.0 °F 32.2 °F 24.1 °F 51% 30.27 in - North 18.4 mph - N/A   Unknown
5:56 PM 39.0 °F 28.5 °F 23.0 °F 53% 30.28 in - NNW 23.0 mph 31.1 mph N/A   Unknown
6:56 PM 39.0 °F 29.6 °F 24.1 °F 55% 30.29 in - NNW 18.4 mph 25.3 mph N/A   Unknown
7:56 PM 37.9 °F 27.6 °F 24.1 °F 57% 30.31 in - North 20.7 mph 26.5 mph N/A   Unknown
8:56 PM 37.0 °F 27.0 °F 28.0 °F 70% 30.32 in - North 18.4 mph 26.5 mph N/A   Unknown
9:56 PM 35.1 °F 25.5 °F 28.0 °F 76% 30.33 in - NNW 15.0 mph 24.2 mph N/A   Unknown
10:56 PM 34.0 °F 23.8 °F 28.0 °F 79% 30.32 in - NNW 16.1 mph - N/A   Unknown
11:56 PM 34.0 °F 23.8 °F 30.0 °F 85% 30.32 in - North 16.1 mph - N/A   Unknown